Home > Weather > Rendsburg > Past weeks

Flag for Germany Weather for the Past 2 Weeks in Rendsburg, Schleswig-Holstein, Germany

Now
45 °F

Light rain. Partly sunny.


Feels Like: 41 °F
Forecast: 37 / 55 °F
Wind: 6 mph from South

Location: Hohn

Current Time: Apr 30, 2016 at 9:54:06 AM

Latest Report: Apr 30, 2016 at 8:20 AM


Visibility: 4 mi

Pressure: 30.04 "Hg

Humidity: 87%

Dew Point: 41 °F

Location of RendsburgLocation

Historic Weather in Rendsburg — Graph

°F

Rendsburg Temperature Yesterday

Maximum temperature yesterday: 50 °F (at 11:20 AM)
Minimum temperature yesterday: 34 °F (at 5:20 AM)
Average temperature yesterday: 42 °F

High & Low Weather Summary for the Past Weeks

 TemperatureHumidityPressure
High55 °F (Apr 16, 3:20 PM)100% (Apr 16, 4:20 AM)30.42 "Hg (Apr 16, 4:20 AM)
Low30 °F (Apr 23, 4:20 AM)28% (Apr 23, 12:20 PM)29.36 "Hg (Apr 26, 4:20 AM)
Average42 °F80%29.83 "Hg
* Reported Apr 15 8:20 AM — Apr 30 8:20 AM, Rendsburg, Weather by CustomWeather, © 2016

Note: Actual official high and low records may vary slightly from our data, if they occured in-between our weather recording intervals... More about our weather records

Advertising

Rendsburg Weather History for the Previous 24 Hours

Scroll right to see more
 ConditionsComfort  
Time TempWeatherWind HumidityBarometerVisibility
8:20 AM
Sat, Apr 30
45 °FLight rain. Partly sunny.6 mph87%30.04 "Hg4 mi
7:20 AM43 °FBroken clouds.5 mph93%30.01 "Hg5 mi
6:20 AM43 °FPassing clouds.3 mph93%30.01 "Hg5 mi
5:20 AM43 °FPartly cloudy.5 mph93%29.98 "HgN/A
4:20 AM45 °FPassing clouds.7 mph87%29.98 "HgN/A
3:20 AM43 °FPartly cloudy.5 mph93%29.98 "HgN/A
2:20 AM41 °FPassing clouds.3 mph93%29.98 "HgN/A
1:20 AM41 °FPartly cloudy.5 mph93%29.98 "HgN/A
12:20 AM43 °FPassing clouds.3 mph93%29.98 "Hg5 mi
11:20 PM
Fri, Apr 29
43 °FDrizzle. Mostly cloudy.9 mph93%29.98 "Hg4 mi
10:20 PM43 °FLight rain. Passing clouds.8 mph93%29.98 "Hg4 mi
9:20 PM43 °FRain. Mostly cloudy.9 mph87%29.98 "HgN/A
8:20 PM43 °FDrizzle. Mostly cloudy.7 mph87%29.98 "HgN/A
7:20 PM43 °FLight rain. Partly sunny.7 mph87%29.98 "HgN/A
6:20 PM45 °FPartly sunny.15 mph76%29.95 "Hg5 mi
5:20 PM45 °FDrizzle. Fog.7 mph93%29.95 "Hg3 mi
4:20 PM43 °FDrizzle. Fog.5 mph93%29.95 "Hg3 mi
3:20 PM41 °FDrizzle. Partly sunny.7 mph93%29.92 "Hg4 mi
2:20 PM43 °FDrizzle. Broken clouds.15 mph87%29.92 "Hg4 mi
1:20 PM50 °FPartly sunny.18 mph54%29.86 "HgN/A
12:20 PM50 °FDrizzle. Broken clouds.18 mph58%29.89 "HgN/A
11:20 AM50 °FMore clouds than sun.17 mph58%29.86 "HgN/A
10:20 AM46 °FCloudy.14 mph62%29.86 "HgN/A
9:20 AM45 °FMore clouds than sun.12 mph71%29.89 "HgN/A
Weather by CustomWeather, © 2016

See weather overviewHow to use our weather pages